sat.trackr.live / text

‹ back to catalog

STARLINK-34265

NORAD 64192 · 2025-113Y

PAYLOAD ACTIVE UNKNOWN

§ Identity

Operator
Country
US
Launch date
2025-05-28
Launch site
AFETR
Launch vehicle
Mass (kg)
RCS (m²)

Purposes: comms

External: N2YO · Heavens-Above · Gunter

§ Orbital elements

Epoch: 2026-05-25T02:35:38.576832Z

Period
94.10 min
Inclination
53.1592°
Eccentricity
0.0001377
Mean motion
15.30210202 rev/d
Perigee alt
474.2 km
Apogee alt
476.1 km
Semi-major
6,853.3 km
B*
5.0290e-4
RAAN
96.2732°
Arg perigee
120.0984°
Mean anomaly
240.0153°
Rev number
5,672

§ Raw data

STARLINK-342651 64192U 25113Y   26145.10808538  .00014569  00000+0  50290-3 0  99982 64192  53.1592  96.2732 0001377 120.0984 240.0153 15.30210202 56721

JSON: /api/v1/satellites/64192 · /tle

For live sub-satellite position, see the globe view (requires WebGL).

§ Visibility from observer

Set your observer location to see the next 7 days of passes ≥ 10°. The values pass through the URL so the page stays shareable.

No JS? Fill the form by hand. The geolocation button needs JavaScript.